contact:dominique.lefevre@mio.osupytheas.fr, maurice.libes@osupytheas.fr, didier.mallarino@osupytheas.fr
Project:EMSO http://www.emso-fr.org/EMSO-France
Depth: 2436.0 m
Title:EMSO Ligure Ouest : Data MII capteur AQUADOPP
Date,Latitude,Longitude,X_East,Y_North,Z_Up,Amplitude_X,Amplitude_Y,Amplitude_Z,Batterie,SoundSpeed,Heading,Pitch,Roll,Pressure,TIS,Speed,Direction
, degrees North, degrees East, m.s-1, m.s-1,m.s-1, 1, 1, 1, Volt, m.s-1, degree, degree, degree, dbar, degree_C, m.s-1, degree
2020-03-07T00:04:03,42.805,6.029,0.0,0.002,-0.056,106.0,108.0,103.0,13.4,1505.3,323.1,-0.7,1.9,2470.205,13.31,0.002,0.0
2020-03-07T00:07:03,42.805,6.029,0.014,-0.001,-0.02,107.0,109.0,102.0,13.3,1505.3,328.0,-0.7,1.8,2470.22,13.31,0.014,94.1
2020-03-07T00:10:03,42.805,6.029,0.0,0.006,-0.012,105.0,108.0,103.0,13.4,1505.3,324.8,-0.7,1.8,2470.242,13.32,0.006,0.0
2020-03-07T00:13:03,42.805,6.029,0.009,-0.008,-0.009,105.0,109.0,102.0,13.4,1505.3,323.6,-0.7,1.8,2470.223,13.32,0.012,131.6
2020-03-07T00:16:03,42.805,6.029,-0.005,-0.003,-0.042,105.0,108.0,103.0,13.3,1505.3,323.8,-0.7,1.8,2470.224,13.33,0.005,239.0
2020-03-07T00:19:03,42.805,6.029,0.002,0.01,-0.003,105.0,109.0,103.0,13.4,1505.3,328.7,-0.7,1.8,2470.207,13.33,0.01,11.3
2020-03-07T00:22:03,42.805,6.029,0.008,-0.013,0.001,106.0,109.0,103.0,13.4,1505.3,328.0,-0.7,1.8,2470.253,13.33,0.015,148.4
2020-03-07T00:25:03,42.805,6.029,-0.015,-0.014,-0.034,105.0,109.0,102.0,13.4,1505.3,324.9,-0.7,1.8,2470.188,13.33,0.02,227.0
2020-03-07T00:28:03,42.805,6.029,0.001,0.0,-0.045,106.0,107.0,101.0,13.4,1505.3,325.1,-0.7,1.8,2470.177,13.33,0.001,90.0
2020-03-07T00:31:03,42.805,6.029,0.009,-0.004,-0.014,105.0,108.0,102.0,13.4,1505.3,326.4,-0.7,1.8,2470.214,13.33,0.009,114.0
2020-03-07T00:34:03,42.805,6.029,0.002,-0.018,-0.002,106.0,108.0,103.0,13.4,1505.3,323.8,-0.7,1.8,2470.214,13.33,0.018,173.7
2020-03-07T00:37:03,42.805,6.029,0.005,-0.015,-0.032,104.0,108.0,102.0,13.3,1505.3,324.0,-0.7,1.8,2470.196,13.33,0.015,161.6
2020-03-07T00:40:03,42.805,6.029,-0.008,0.001,-0.069,105.0,108.0,101.0,13.3,1505.3,323.1,-0.7,1.8,2470.202,13.33,0.008,277.1
2020-03-07T00:43:03,42.805,6.029,-0.018,0.012,-0.049,106.0,108.0,102.0,13.4,1505.3,327.6,-0.7,1.8,2470.218,13.33,0.021,303.7
2020-03-07T00:46:03,42.805,6.029,-0.005,0.006,-0.033,106.0,107.0,101.0,13.4,1505.3,325.5,-0.7,1.8,2470.183,13.33,0.007,320.2
2020-03-07T00:49:03,42.805,6.029,-0.024,0.003,-0.055,105.0,109.0,103.0,13.4,1505.3,325.0,-0.7,1.8,2470.228,13.33,0.024,277.1
2020-03-07T00:52:03,42.805,6.029,-0.02,-0.008,-0.044,104.0,109.0,103.0,13.4,1505.3,324.7,-0.7,1.8,2470.246,13.33,0.021,248.2
2020-03-07T00:55:03,42.805,6.029,-0.008,-0.013,-0.044,108.0,107.0,101.0,13.4,1505.3,323.8,-0.7,1.8,2470.244,13.33,0.015,211.6
2020-03-07T00:58:03,42.805,6.029,0.019,-0.021,-0.009,106.0,109.0,103.0,13.4,1505.3,326.7,-0.7,1.8,2470.248,13.33,0.028,137.9
2020-03-07T01:04:03,42.805,6.029,-0.026,-0.005,-0.049,106.0,109.0,104.0,13.3,1505.3,326.8,-0.7,1.8,2470.276,13.31,0.026,259.1
2020-03-07T01:07:03,42.805,6.029,-0.016,-0.031,-0.075,106.0,107.0,102.0,13.4,1505.3,324.3,-0.7,1.9,2470.219,13.32,0.034,207.3
2020-03-07T01:10:03,42.805,6.029,0.003,-0.007,-0.058,106.0,107.0,102.0,13.4,1505.3,326.0,-0.7,1.8,2470.2,13.32,0.007,156.8
2020-03-07T01:13:03,42.805,6.029,-0.027,-0.003,-0.073,107.0,107.0,103.0,13.4,1505.3,326.6,-0.7,1.9,2470.247,13.32,0.027,263.7
2020-03-07T01:16:03,42.805,6.029,-0.028,-0.011,-0.056,107.0,108.0,101.0,13.4,1505.3,323.3,-0.7,1.9,2470.265,13.33,0.03,248.6
2020-03-07T01:19:03,42.805,6.029,-0.025,0.008,-0.07,106.0,107.0,102.0,13.4,1505.3,326.4,-0.7,1.8,2470.189,13.33,0.026,287.7
2020-03-07T01:22:03,42.805,6.029,-0.013,0.002,-0.058,106.0,107.0,103.0,13.4,1505.3,326.3,-0.7,1.8,2470.242,13.33,0.013,278.7
2020-03-07T01:25:03,42.805,6.029,-0.007,0.003,-0.056,105.0,108.0,103.0,13.3,1505.3,325.5,-0.7,1.8,2470.256,13.33,0.007,293.2
2020-03-07T01:28:03,42.805,6.029,-0.033,0.007,-0.04,106.0,108.0,104.0,13.4,1505.3,324.7,-0.7,1.8,2470.254,13.33,0.033,282.0
2020-03-07T01:31:03,42.805,6.029,-0.021,-0.01,-0.021,106.0,107.0,102.0,13.3,1505.3,323.7,-0.7,1.9,2470.208,13.33,0.023,244.5
2020-03-07T01:34:03,42.805,6.029,-0.004,0.015,-0.05,106.0,108.0,103.0,13.4,1505.3,328.5,-0.7,1.8,2470.223,13.33,0.015,345.1
2020-03-07T01:37:03,42.805,6.029,-0.039,0.007,-0.07,105.0,108.0,102.0,13.3,1505.3,327.0,-0.7,1.8,2470.261,13.33,0.039,280.2
2020-03-07T01:40:03,42.805,6.029,-0.012,-0.009,-0.045,106.0,108.0,103.0,13.4,1505.3,326.9,-0.7,1.8,2470.239,13.33,0.015,233.1
2020-03-07T01:43:03,42.805,6.029,-0.016,0.001,-0.042,106.0,109.0,104.0,13.3,1505.3,326.4,-0.7,1.8,2470.265,13.33,0.016,273.6
2020-03-07T01:46:03,42.805,6.029,-0.013,-0.006,-0.066,105.0,109.0,103.0,13.4,1505.3,327.9,-0.7,1.9,2470.238,13.33,0.014,245.2
2020-03-07T01:49:03,42.805,6.029,-0.022,-0.015,-0.049,106.0,108.0,103.0,13.3,1505.3,326.7,-0.7,1.9,2470.247,13.33,0.026,235.7
2020-03-07T01:52:03,42.805,6.029,0.002,-0.002,-0.081,106.0,108.0,103.0,13.4,1505.3,328.0,-0.7,1.8,2470.243,13.33,0.002,135.0
2020-03-07T01:55:03,42.805,6.029,-0.03,-0.006,-0.093,106.0,108.0,102.0,13.4,1505.3,323.0,-0.7,1.8,2470.247,13.33,0.03,258.7
2020-03-07T01:58:03,42.805,6.029,-0.013,0.003,-0.034,105.0,108.0,103.0,13.4,1505.3,326.8,-0.7,1.8,2470.277,13.33,0.013,283.0
2020-03-07T02:04:03,42.805,6.029,-0.007,0.004,-0.025,107.0,108.0,104.0,13.4,1505.3,328.2,-0.7,1.8,2470.354,13.31,0.008,299.7
2020-03-07T02:07:03,42.805,6.029,-0.012,0.0,-0.038,106.0,107.0,102.0,13.4,1505.3,328.1,-0.7,1.8,2470.263,13.32,0.012,270.0
2020-03-07T02:10:03,42.805,6.029,-0.016,0.008,-0.033,106.0,108.0,102.0,13.4,1505.3,325.7,-0.7,1.8,2470.314,13.32,0.017,296.6
2020-03-07T02:13:03,42.805,6.029,-0.007,0.003,-0.026,106.0,109.0,104.0,13.4,1505.3,328.3,-0.7,1.8,2470.322,13.32,0.007,293.2
2020-03-07T02:16:03,42.805,6.029,-0.008,-0.017,-0.023,107.0,108.0,103.0,13.3,1505.3,324.7,-0.7,1.8,2470.245,13.33,0.018,205.2
2020-03-07T02:19:03,42.805,6.029,-0.01,-0.002,-0.043,108.0,108.0,103.0,13.3,1505.3,326.4,-0.7,1.9,2470.322,13.33,0.01,258.7
2020-03-07T03:04:02,42.805,6.029,0.015,-0.023,-0.042,106.0,109.0,103.0,13.4,1505.1,323.7,-0.8,1.8,2470.794,13.27,0.027,146.9
2020-03-07T03:07:03,42.805,6.029,-0.008,-0.004,-0.019,105.0,109.0,103.0,13.4,1505.2,323.3,-0.7,1.8,2470.732,13.29,0.008,243.4
2020-03-07T03:10:03,42.805,6.029,0.014,-0.01,-0.055,105.0,108.0,102.0,13.4,1505.2,324.2,-0.7,1.9,2470.69,13.3,0.017,125.5
2020-03-07T03:13:03,42.805,6.029,0.014,-0.026,-0.032,106.0,108.0,102.0,13.4,1505.3,328.2,-0.7,1.9,2470.652,13.31,0.029,151.7
2020-03-07T03:16:03,42.805,6.029,0.014,-0.001,-0.021,107.0,106.0,103.0,13.4,1505.3,327.9,-0.7,1.9,2470.621,13.32,0.014,94.1
2020-03-07T03:19:03,42.805,6.029,0.01,-0.005,-0.031,105.0,108.0,103.0,13.4,1505.3,325.6,-0.7,1.8,2470.604,13.32,0.011,116.6
2020-03-07T03:22:03,42.805,6.029,0.006,-0.025,-0.036,107.0,107.0,104.0,13.3,1505.3,325.6,-0.7,1.8,2470.593,13.32,0.025,166.5
2020-03-07T03:25:03,42.805,6.029,0.003,-0.002,-0.004,105.0,107.0,102.0,13.4,1505.3,325.2,-0.7,1.8,2470.544,13.32,0.003,123.7
2020-03-07T03:28:03,42.805,6.029,0.008,0.012,-0.058,106.0,106.0,103.0,13.4,1505.3,325.6,-0.7,1.8,2470.493,13.33,0.014,33.7
2020-03-07T03:31:03,42.805,6.029,-0.002,-0.013,-0.01,106.0,108.0,103.0,13.4,1505.3,326.2,-0.7,1.8,2470.496,13.33,0.013,188.7
2020-03-07T03:34:03,42.805,6.029,0.008,-0.012,-0.024,106.0,108.0,101.0,13.3,1505.3,326.3,-0.7,1.8,2470.469,13.33,0.014,146.3
2020-03-07T03:37:03,42.805,6.029,0.005,-0.008,-0.048,106.0,109.0,103.0,13.4,1505.3,323.7,-0.7,1.8,2470.472,13.33,0.009,148.0
2020-03-07T03:40:03,42.805,6.029,0.017,-0.012,-0.046,106.0,108.0,103.0,13.4,1505.3,326.7,-0.7,1.8,2470.417,13.33,0.02,125.2
2020-03-07T03:43:03,42.805,6.029,0.025,0.01,-0.024,106.0,108.0,103.0,13.4,1505.3,325.8,-0.7,1.8,2470.409,13.33,0.026,68.2
2020-03-07T03:46:03,42.805,6.029,0.007,0.005,-0.051,106.0,108.0,102.0,13.4,1505.3,323.4,-0.7,1.8,2470.445,13.33,0.008,54.5
2020-03-07T03:49:03,42.805,6.029,0.0,0.005,-0.047,106.0,108.0,103.0,13.4,1505.3,324.8,-0.7,1.8,2470.425,13.33,0.005,0.0
2020-03-07T03:52:03,42.805,6.029,-0.007,-0.019,-0.017,107.0,107.0,103.0,13.4,1505.3,323.2,-0.7,1.8,2470.399,13.33,0.02,200.2
2020-03-07T03:55:03,42.805,6.029,0.016,-0.005,-0.032,106.0,107.0,103.0,13.4,1505.3,326.5,-0.7,1.8,2470.391,13.33,0.016,107.4
2020-03-07T03:58:03,42.805,6.029,-0.004,-0.013,-0.036,106.0,108.0,103.0,13.4,1505.3,325.4,-0.7,1.8,2470.408,13.33,0.013,197.1
2020-03-07T04:04:03,42.805,6.029,0.005,-0.008,-0.011,107.0,108.0,103.0,13.4,1505.3,328.3,-0.7,1.9,2470.402,13.31,0.009,148.0
2020-03-07T04:07:03,42.805,6.029,0.004,-0.014,-0.054,107.0,106.0,102.0,13.4,1505.3,323.9,-0.7,1.8,2470.424,13.31,0.014,164.1
2020-03-07T04:10:03,42.805,6.029,0.009,0.027,-0.014,106.0,107.0,103.0,13.3,1505.3,327.2,-0.7,1.9,2470.421,13.32,0.028,18.4
2020-03-07T04:13:03,42.805,6.029,0.013,0.003,-0.012,106.0,107.0,102.0,13.4,1505.3,323.7,-0.7,1.8,2470.411,13.32,0.013,77.0
2020-03-07T04:16:03,42.805,6.029,0.026,-0.008,0.014,105.0,107.0,101.0,13.4,1505.3,325.1,-0.7,1.8,2470.404,13.32,0.027,107.1
2020-03-07T04:19:03,42.805,6.029,0.015,-0.016,0.0,106.0,106.0,103.0,13.3,1505.3,328.4,-0.7,1.8,2470.403,13.32,0.021,136.9
2020-03-07T04:22:03,42.805,6.029,0.0,0.007,-0.046,104.0,108.0,103.0,13.4,1505.3,325.0,-0.7,1.8,2470.411,13.33,0.007,0.0
2020-03-07T04:25:03,42.805,6.029,0.016,-0.002,-0.012,107.0,107.0,102.0,13.4,1505.3,325.2,-0.7,1.8,2470.428,13.33,0.016,97.1
2020-03-07T04:28:03,42.805,6.029,0.0,-0.004,-0.053,106.0,108.0,103.0,13.4,1505.3,325.8,-0.7,1.8,2470.435,13.33,0.004,180.0
2020-03-07T04:31:03,42.805,6.029,0.013,-0.021,-0.056,108.0,107.0,103.0,13.4,1505.3,327.4,-0.7,1.8,2470.409,13.33,0.024,148.2
2020-03-07T04:34:03,42.805,6.029,0.0,-0.001,-0.028,106.0,107.0,103.0,13.4,1505.3,328.7,-0.7,1.8,2470.397,13.33,0.001,180.0
2020-03-07T04:37:03,42.805,6.029,-0.007,-0.025,-0.024,107.0,107.0,103.0,13.4,1505.3,327.1,-0.7,1.8,2470.431,13.33,0.025,195.6
2020-03-07T04:40:03,42.805,6.029,0.0,0.002,-0.029,107.0,108.0,103.0,13.4,1505.3,327.4,-0.7,1.8,2470.378,13.33,0.002,0.0
2020-03-07T04:43:03,42.805,6.029,0.011,0.005,-0.017,106.0,108.0,102.0,13.4,1505.3,323.8,-0.7,1.8,2470.401,13.33,0.012,65.6
2020-03-07T04:46:03,42.805,6.029,0.01,-0.032,-0.018,106.0,108.0,104.0,13.4,1505.3,326.4,-0.7,1.8,2470.372,13.33,0.033,162.6
2020-03-07T04:49:03,42.805,6.029,0.02,-0.013,0.0,105.0,108.0,104.0,13.4,1505.3,326.6,-0.7,1.8,2470.414,13.33,0.023,123.0
2020-03-07T04:52:03,42.805,6.029,0.022,-0.039,-0.005,107.0,108.0,103.0,13.4,1505.3,327.0,-0.7,1.8,2470.396,13.33,0.044,150.6
2020-03-07T04:55:03,42.805,6.029,0.004,0.009,-0.011,106.0,109.0,101.0,13.4,1505.3,325.4,-0.7,1.9,2470.437,13.33,0.009,24.0
2020-03-07T04:58:03,42.805,6.029,0.006,0.01,-0.011,106.0,107.0,102.0,13.4,1505.3,327.2,-0.7,1.8,2470.409,13.33,0.011,31.0
2020-03-07T05:04:03,42.805,6.029,-0.013,-0.02,-0.046,107.0,109.0,103.0,13.4,1505.3,324.6,-0.7,1.8,2470.44,13.31,0.023,213.0
2020-03-07T05:07:03,42.805,6.029,-0.014,-0.015,-0.025,107.0,109.0,103.0,13.4,1505.3,325.1,-0.7,1.8,2470.457,13.31,0.02,223.0
2020-03-07T05:10:03,42.805,6.029,0.002,-0.013,-0.05,106.0,109.0,102.0,13.4,1505.3,327.0,-0.7,1.9,2470.439,13.32,0.013,171.3
2020-03-07T05:13:03,42.805,6.029,0.01,-0.001,-0.001,105.0,108.0,103.0,13.4,1505.3,324.3,-0.7,1.8,2470.404,13.32,0.01,95.7
2020-03-07T05:16:03,42.805,6.029,-0.017,-0.002,-0.034,107.0,109.0,104.0,13.4,1505.3,324.1,-0.7,1.8,2470.436,13.32,0.017,263.3
2020-03-07T05:19:03,42.805,6.029,0.027,-0.021,-0.033,108.0,109.0,101.0,13.4,1505.3,324.0,-0.7,1.9,2470.435,13.33,0.034,127.9
2020-03-07T05:22:03,42.805,6.029,-0.014,-0.009,-0.018,107.0,108.0,103.0,13.3,1505.3,323.7,-0.7,1.8,2470.414,13.33,0.016,237.3
2020-03-07T05:25:03,42.805,6.029,0.042,0.0,-0.014,107.0,108.0,103.0,13.4,1505.3,323.3,-0.7,1.9,2470.421,13.33,0.042,90.0
2020-03-07T05:28:03,42.805,6.029,-0.009,-0.017,-0.033,106.0,108.0,103.0,13.3,1505.3,328.2,-0.7,1.8,2470.46,13.33,0.019,207.9
2020-03-07T05:31:03,42.805,6.029,0.018,-0.002,-0.024,105.0,107.0,102.0,13.4,1505.3,326.9,-0.7,1.9,2470.416,13.33,0.018,96.3
2020-03-07T05:34:03,42.805,6.029,0.027,-0.003,0.004,105.0,108.0,103.0,13.4,1505.3,324.2,-0.7,1.8,2470.439,13.33,0.027,96.3
2020-03-07T05:37:03,42.805,6.029,-0.005,-0.007,-0.053,105.0,109.0,102.0,13.4,1505.3,326.4,-0.7,1.8,2470.44,13.33,0.008,215.5
2020-03-07T05:40:03,42.805,6.029,0.007,-0.016,-0.025,105.0,108.0,102.0,13.4,1505.3,324.9,-0.7,1.9,2470.427,13.33,0.017,156.4
2020-03-07T05:43:03,42.805,6.029,-0.005,0.004,-0.02,106.0,107.0,103.0,13.4,1505.3,326.3,-0.7,1.8,2470.445,13.33,0.006,308.7
2020-03-07T05:46:03,42.805,6.029,0.008,-0.009,-0.033,106.0,108.0,106.0,13.4,1505.3,325.1,-0.7,1.9,2470.44,13.33,0.012,138.4
2020-03-07T05:49:03,42.805,6.029,0.001,0.001,-0.024,105.0,109.0,104.0,13.4,1505.3,326.8,-0.7,1.8,2470.459,13.33,0.001,45.0
2020-03-07T05:55:03,42.805,6.029,0.004,-0.018,-0.045,106.0,108.0,101.0,13.3,1505.3,324.5,-0.8,1.8,2470.448,13.31,0.018,167.5
2020-03-07T05:58:03,42.805,6.029,0.003,-0.001,-0.039,106.0,109.0,102.0,13.3,1505.3,323.2,-0.7,1.8,2470.462,13.31,0.003,108.4
2020-03-07T06:04:03,42.805,6.029,0.0,-0.016,-0.039,105.0,106.0,102.0,13.4,1505.2,325.1,-0.7,1.8,2470.47,13.3,0.016,180.0
2020-03-07T06:07:03,42.805,6.029,0.004,-0.017,-0.042,105.0,107.0,103.0,13.4,1505.3,323.5,-0.7,1.8,2470.489,13.31,0.017,166.8
2020-03-07T06:10:03,42.805,6.029,-0.017,-0.016,-0.045,106.0,109.0,103.0,13.4,1505.3,327.6,-0.8,1.8,2470.455,13.32,0.023,226.7
2020-03-07T06:13:03,42.805,6.029,-0.006,-0.009,-0.025,106.0,106.0,102.0,13.4,1505.3,326.2,-0.7,1.8,2470.462,13.32,0.01,213.7
2020-03-07T06:16:03,42.805,6.029,-0.001,-0.03,-0.061,107.0,108.0,103.0,13.3,1505.3,328.1,-0.7,1.8,2470.458,13.32,0.03,181.9
2020-03-07T06:19:03,42.805,6.029,-0.029,-0.011,-0.04,106.0,107.0,102.0,13.4,1505.3,326.4,-0.6,1.8,2470.445,13.32,0.031,249.2
2020-03-07T06:22:03,42.805,6.029,-0.015,-0.029,-0.04,107.0,108.0,102.0,13.4,1505.3,324.7,-0.7,1.8,2470.431,13.32,0.032,207.4
2020-03-07T06:25:03,42.805,6.029,0.011,-0.016,-0.008,105.0,108.0,103.0,13.4,1505.3,327.0,-0.7,1.9,2470.464,13.33,0.019,145.5
2020-03-07T06:28:03,42.805,6.029,0.013,-0.01,-0.027,106.0,106.0,103.0,13.4,1505.3,326.7,-0.7,1.8,2470.444,13.33,0.016,127.6
2020-03-07T06:31:03,42.805,6.029,-0.01,-0.003,-0.014,105.0,106.0,103.0,13.4,1505.3,324.3,-0.7,1.8,2470.449,13.33,0.01,253.3
2020-03-07T06:34:03,42.805,6.029,-0.002,0.004,-0.035,106.0,107.0,102.0,13.4,1505.3,327.0,-0.7,1.8,2470.42,13.33,0.004,333.4
2020-03-07T06:37:03,42.805,6.029,-0.001,0.0,-0.048,106.0,107.0,103.0,13.4,1505.3,327.4,-0.7,1.8,2470.432,13.33,0.001,270.0
2020-03-07T06:40:03,42.805,6.029,0.002,-0.026,-0.047,107.0,106.0,102.0,13.4,1505.3,323.4,-0.7,1.8,2470.426,13.33,0.026,175.6
2020-03-07T06:43:03,42.805,6.029,0.0,-0.016,-0.007,106.0,105.0,102.0,13.3,1505.3,326.0,-0.7,1.8,2470.448,13.33,0.016,180.0
2020-03-07T06:46:03,42.805,6.029,0.018,0.011,-0.014,105.0,105.0,102.0,13.4,1505.3,326.3,-0.7,1.8,2470.405,13.33,0.021,58.6
2020-03-07T06:49:03,42.805,6.029,-0.001,0.0,-0.013,106.0,108.0,103.0,13.4,1505.3,325.6,-0.7,1.8,2470.408,13.33,0.001,270.0
2020-03-07T06:52:03,42.805,6.029,-0.001,0.005,-0.011,106.0,107.0,102.0,13.3,1505.3,327.5,-0.7,1.8,2470.426,13.33,0.005,348.7
2020-03-07T06:55:03,42.805,6.029,0.003,-0.001,-0.038,108.0,106.0,102.0,13.4,1505.3,323.4,-0.7,1.9,2470.425,13.33,0.003,108.4
2020-03-07T06:58:03,42.805,6.029,-0.011,-0.001,-0.022,106.0,106.0,103.0,13.4,1505.3,325.4,-0.7,1.8,2470.378,13.33,0.011,264.8
2020-03-07T07:04:03,42.805,6.029,-0.01,-0.013,-0.019,106.0,106.0,103.0,13.4,1505.3,324.7,-0.7,1.8,2470.465,13.31,0.016,217.6
2020-03-07T07:07:03,42.805,6.029,-0.017,-0.024,-0.058,107.0,107.0,103.0,13.3,1505.3,324.3,-0.7,1.8,2470.419,13.32,0.029,215.3
2020-03-07T07:10:03,42.805,6.029,-0.008,-0.018,-0.033,105.0,108.0,103.0,13.4,1505.3,325.4,-0.7,1.8,2470.434,13.32,0.019,204.0
2020-03-07T07:13:03,42.805,6.029,0.002,-0.014,-0.007,106.0,106.0,102.0,13.3,1505.3,324.7,-0.7,1.9,2470.436,13.32,0.014,171.9
2020-03-07T07:16:03,42.805,6.029,-0.014,0.01,-0.021,107.0,106.0,102.0,13.4,1505.3,324.5,-0.7,1.9,2470.381,13.33,0.017,305.5
2020-03-07T07:19:03,42.805,6.029,-0.015,-0.002,-0.033,106.0,106.0,103.0,13.3,1505.3,324.4,-0.7,1.8,2470.419,13.33,0.015,262.4
2020-03-07T07:22:03,42.805,6.029,0.005,-0.013,-0.057,106.0,108.0,104.0,13.4,1505.3,323.6,-0.7,1.8,2470.383,13.33,0.013,159.0
2020-03-07T07:25:03,42.805,6.029,-0.012,0.023,-0.068,106.0,107.0,102.0,13.3,1505.3,326.3,-0.7,1.8,2470.421,13.33,0.025,332.4
2020-03-07T07:28:03,42.805,6.029,0.004,-0.009,-0.021,106.0,108.0,102.0,13.3,1505.3,328.4,-0.7,1.8,2470.387,13.33,0.009,156.0
2020-03-07T07:31:03,42.805,6.029,-0.006,-0.001,-0.047,107.0,107.0,103.0,13.4,1505.3,323.2,-0.7,1.8,2470.403,13.33,0.006,260.5
2020-03-07T07:34:03,42.805,6.029,0.0,-0.009,-0.018,107.0,108.0,103.0,13.3,1505.3,324.4,-0.7,1.8,2470.389,13.33,0.009,180.0
2020-03-07T07:37:03,42.805,6.029,0.018,0.002,-0.017,106.0,108.0,104.0,13.3,1505.3,325.2,-0.7,1.8,2470.389,13.33,0.018,83.7
2020-03-07T07:40:03,42.805,6.029,-0.012,-0.004,-0.036,106.0,107.0,102.0,13.4,1505.3,326.2,-0.7,1.8,2470.421,13.33,0.012,251.6
2020-03-07T07:43:03,42.805,6.029,0.005,-0.004,-0.048,106.0,107.0,102.0,13.3,1505.3,327.3,-0.7,1.8,2470.369,13.33,0.006,128.7
2020-03-07T07:46:03,42.805,6.029,-0.016,-0.012,-0.033,106.0,107.0,103.0,13.4,1505.3,328.3,-0.7,1.8,2470.36,13.33,0.02,233.1
2020-03-07T07:49:03,42.805,6.029,-0.029,-0.016,-0.049,107.0,107.0,103.0,13.4,1505.3,327.8,-0.7,1.8,2470.373,13.33,0.033,241.1
2020-03-07T07:52:03,42.805,6.029,-0.027,0.007,-0.026,106.0,106.0,102.0,13.3,1505.3,327.2,-0.7,1.9,2470.382,13.33,0.027,284.5
2020-03-07T07:55:03,42.805,6.029,-0.02,-0.009,-0.047,105.0,107.0,103.0,13.4,1505.3,328.1,-0.7,1.8,2470.397,13.33,0.021,245.8
2020-03-07T07:58:03,42.805,6.029,-0.022,-0.004,-0.034,105.0,109.0,103.0,13.4,1505.3,327.5,-0.7,1.8,2470.418,13.33,0.022,259.7
2020-03-07T08:04:03,42.805,6.029,-0.012,-0.02,-0.022,107.0,107.0,103.0,13.4,1505.3,324.6,-0.7,1.8,2470.417,13.31,0.023,211.0
2020-03-07T08:07:03,42.805,6.029,-0.032,-0.004,-0.056,105.0,107.0,102.0,13.4,1505.3,326.9,-0.7,1.8,2470.429,13.32,0.032,262.9
2020-03-07T08:10:03,42.805,6.029,-0.024,0.002,-0.055,106.0,107.0,102.0,13.4,1505.3,326.0,-0.7,1.8,2470.425,13.32,0.024,274.8
2020-03-07T08:13:03,42.805,6.029,-0.022,-0.007,-0.027,106.0,108.0,101.0,13.4,1505.3,326.1,-0.7,1.9,2470.39,13.32,0.023,252.4
2020-03-07T08:16:03,42.805,6.029,0.0,-0.005,-0.034,106.0,107.0,103.0,13.3,1505.3,324.7,-0.7,1.8,2470.406,13.32,0.005,180.0
2020-03-07T08:19:03,42.805,6.029,0.0,-0.002,-0.043,106.0,107.0,103.0,13.3,1505.3,325.1,-0.7,1.8,2470.385,13.33,0.002,180.0
2020-03-07T08:22:03,42.805,6.029,-0.019,0.013,-0.033,106.0,106.0,102.0,13.4,1505.3,326.5,-0.7,1.8,2470.37,13.33,0.023,304.4
2020-03-07T08:25:03,42.805,6.029,-0.008,0.013,-0.014,106.0,106.0,103.0,13.3,1505.3,323.9,-0.7,1.8,2470.338,13.33,0.015,328.4
2020-03-07T08:28:03,42.805,6.029,-0.015,-0.011,-0.034,106.0,107.0,102.0,13.4,1505.3,325.7,-0.7,1.8,2470.35,13.33,0.018,233.7
2020-03-07T08:31:03,42.805,6.029,-0.008,-0.001,-0.038,106.0,109.0,103.0,13.4,1505.3,325.0,-0.7,1.8,2470.352,13.33,0.008,262.9
2020-03-07T08:34:03,42.805,6.029,-0.019,-0.013,-0.037,106.0,109.0,103.0,13.3,1505.3,326.1,-0.7,1.8,2470.391,13.33,0.023,235.6
2020-03-07T08:37:03,42.805,6.029,-0.021,0.0,-0.036,106.0,108.0,103.0,13.4,1505.3,323.5,-0.7,1.8,2470.319,13.33,0.021,270.0
2020-03-07T08:40:03,42.805,6.029,-0.008,-0.015,-0.06,107.0,107.0,102.0,13.4,1505.3,325.7,-0.7,1.8,2470.301,13.33,0.017,208.1
2020-03-07T08:43:03,42.805,6.029,-0.018,0.0,-0.02,107.0,107.0,102.0,13.4,1505.3,327.0,-0.7,1.9,2470.326,13.33,0.018,270.0
2020-03-07T08:46:03,42.805,6.029,-0.023,-0.017,0.005,106.0,108.0,103.0,13.3,1505.3,323.5,-0.7,1.8,2470.34,13.33,0.028,233.5
2020-03-07T08:49:03,42.805,6.029,-0.011,-0.001,-0.056,107.0,108.0,102.0,13.4,1505.3,324.5,-0.7,1.9,2470.316,13.33,0.011,264.8
2020-03-07T08:52:03,42.805,6.029,-0.037,-0.022,-0.028,107.0,108.0,102.0,13.3,1505.3,324.2,-0.7,1.8,2470.322,13.33,0.043,239.3
2020-03-07T08:55:03,42.805,6.029,0.0,-0.004,-0.073,105.0,107.0,102.0,13.3,1505.3,328.0,-0.7,1.8,2470.31,13.33,0.004,180.0
2020-03-07T08:58:03,42.805,6.029,-0.043,-0.02,-0.069,105.0,107.0,102.0,13.3,1505.3,324.8,-0.7,1.8,2470.326,13.33,0.047,245.1
2020-03-07T09:04:03,42.805,6.029,0.02,-0.018,-0.021,106.0,108.0,102.0,13.4,1505.3,326.6,-0.7,1.8,2470.379,13.31,0.026,132.0
2020-03-07T09:07:03,42.805,6.029,-0.008,0.003,-0.052,105.0,108.0,104.0,13.3,1505.3,327.4,-0.7,1.8,2470.345,13.32,0.008,290.6
2020-03-07T09:10:03,42.805,6.029,-0.027,0.008,-0.03,106.0,107.0,103.0,13.3,1505.3,325.5,-0.7,1.8,2470.309,13.32,0.028,286.5
2020-03-07T09:13:03,42.805,6.029,-0.016,-0.013,-0.031,107.0,107.0,103.0,13.4,1505.3,328.4,-0.7,1.8,2470.337,13.32,0.02,230.9
2020-03-07T09:16:03,42.805,6.029,-0.048,0.005,-0.034,106.0,108.0,103.0,13.4,1505.3,323.5,-0.7,1.8,2470.36,13.32,0.048,275.9
2020-03-07T09:19:03,42.805,6.029,-0.016,-0.017,-0.034,106.0,108.0,103.0,13.3,1505.3,324.8,-0.7,1.8,2470.358,13.33,0.023,223.3
2020-03-07T09:22:03,42.805,6.029,-0.008,0.014,-0.033,107.0,108.0,103.0,13.3,1505.3,327.9,-0.7,1.8,2470.324,13.33,0.016,330.3
2020-03-07T09:25:03,42.805,6.029,-0.022,0.003,-0.025,107.0,110.0,104.0,13.4,1505.3,327.7,-0.7,1.8,2470.286,13.33,0.022,277.8
2020-03-07T09:28:03,42.805,6.029,-0.023,0.006,-0.038,106.0,107.0,105.0,13.3,1505.3,322.9,-0.7,1.8,2470.35,13.33,0.023,284.6
2020-03-07T09:31:03,42.805,6.029,-0.019,-0.003,-0.038,106.0,110.0,102.0,13.3,1505.3,323.2,-0.7,1.8,2470.35,13.33,0.019,261.0
2020-03-07T09:34:03,42.805,6.029,0.014,0.003,-0.011,106.0,108.0,103.0,13.3,1505.3,327.5,-0.7,1.8,2470.303,13.33,0.014,77.9
2020-03-07T09:37:03,42.805,6.029,-0.046,0.002,-0.055,107.0,109.0,103.0,13.4,1505.3,324.0,-0.7,1.8,2470.293,13.33,0.046,272.5
2020-03-07T09:40:03,42.805,6.029,-0.015,0.006,-0.015,107.0,111.0,103.0,13.4,1505.3,326.9,-0.7,1.8,2470.322,13.33,0.016,291.8
2020-03-07T09:43:03,42.805,6.029,0.004,-0.005,-0.017,107.0,109.0,103.0,13.4,1505.3,325.1,-0.7,1.8,2470.274,13.33,0.006,141.3
2020-03-07T09:46:03,42.805,6.029,0.011,0.003,-0.014,106.0,108.0,103.0,13.4,1505.3,324.4,-0.7,1.8,2470.298,13.33,0.011,74.7
2020-03-07T09:49:03,42.805,6.029,-0.018,0.013,-0.043,106.0,110.0,103.0,13.4,1505.3,325.7,-0.7,1.9,2470.303,13.33,0.022,305.8
2020-03-07T09:52:03,42.805,6.029,-0.022,0.013,-0.048,106.0,108.0,103.0,13.3,1505.3,323.1,-0.7,1.8,2470.273,13.33,0.025,300.6
2020-03-07T09:55:03,42.805,6.029,-0.012,0.017,-0.023,107.0,108.0,103.0,13.3,1505.3,324.7,-0.7,1.8,2470.268,13.33,0.02,324.8
2020-03-07T09:58:03,42.805,6.029,-0.034,0.002,-0.031,106.0,109.0,103.0,13.4,1505.3,326.2,-0.7,1.8,2470.287,13.33,0.034,273.4
2020-03-07T10:04:03,42.805,6.029,0.033,0.005,0.012,106.0,109.0,103.0,13.3,1505.3,327.4,-0.7,1.8,2470.319,13.31,0.033,81.4
2020-03-07T10:07:03,42.805,6.029,0.015,0.022,-0.014,106.0,110.0,105.0,13.4,1505.3,327.6,-0.7,1.8,2470.306,13.32,0.026,34.3
2020-03-07T10:10:03,42.805,6.029,0.004,0.0,-0.039,106.0,109.0,103.0,13.4,1505.3,324.3,-0.7,1.8,2470.302,13.32,0.004,90.0
2020-03-07T10:13:03,42.805,6.029,-0.014,0.008,-0.042,107.0,108.0,104.0,13.4,1505.3,324.1,-0.7,1.8,2470.323,13.33,0.016,299.7
2020-03-07T10:16:03,42.805,6.029,0.009,0.001,-0.008,107.0,108.0,103.0,13.4,1505.3,326.3,-0.7,1.8,2470.296,13.33,0.009,83.7
2020-03-07T10:19:03,42.805,6.029,-0.002,0.016,-0.04,104.0,107.0,103.0,13.4,1505.3,324.0,-0.7,1.8,2470.291,13.33,0.016,352.9
2020-03-07T10:22:03,42.805,6.029,0.007,0.029,-0.006,105.0,108.0,103.0,13.4,1505.3,326.2,-0.7,1.8,2470.301,13.33,0.029,13.6
2020-03-07T10:25:03,42.805,6.029,0.011,-0.001,-0.018,106.0,109.0,105.0,13.3,1505.3,327.1,-0.7,1.8,2470.255,13.33,0.011,95.2
2020-03-07T10:28:03,42.805,6.029,0.02,0.007,0.011,105.0,109.0,105.0,13.4,1505.3,325.0,-0.7,1.8,2470.295,13.33,0.021,70.7
2020-03-07T10:31:03,42.805,6.029,-0.008,0.031,-0.013,106.0,108.0,103.0,13.4,1505.3,324.2,-0.7,1.8,2470.271,13.33,0.032,345.5
2020-03-07T10:34:03,42.805,6.029,-0.006,0.008,-0.01,106.0,108.0,102.0,13.4,1505.3,324.3,-0.7,1.8,2470.252,13.33,0.01,323.1
2020-03-07T10:37:03,42.805,6.029,-0.016,-0.005,-0.009,105.0,107.0,104.0,13.4,1505.3,326.4,-0.7,1.8,2470.252,13.33,0.016,252.6
2020-03-07T10:43:03,42.805,6.029,-0.029,0.031,-0.017,106.0,109.0,102.0,13.4,1505.3,325.8,-0.7,1.9,2470.31,13.31,0.042,316.9